Tracking 31027 objects as of 19-Jul-2025
HD Live streaming from Space Station
objects crossing your sky now

STARLINK-1856

Track STARLINK-1856 now!
10-day predictions
STARLINK-1856 is classified as:


NORAD ID: 47143
Int'l Code: 2020-088X
Perigee: 553.5 km
Apogee: 555.2 km
Inclination: 53.1 °
Period: 95.6 minutes
Semi major axis: 6925 km
RCS: Unknown
Launch date: November 25, 2020
Source: United States (US)
Launch site: AIR FORCE EASTERN TEST RANGE (AFETR)
Your satellite tracking list
SL-14 DEB
Track 1 satellite(s)




NASA's NSSDC Master Catalog

Two Line Element Set (TLE):
1 47143U 20088X   25199.47779197 -.00003497  00000-0 -21603-3 0  9994
2 47143  53.0538 263.0366 0001281 103.1416 256.9716 15.06396448256969
Source of the keplerian elements: AFSPC